Boothville, LA

4:03 AM CDT on September 24, 2017 (GMT -0500)
Boothville

Weather History for KBVE - November, 2012

Change the Weather History Date:

Tuesday, November 6, 2012

  Actual Average (KAXO) Record (KAXO)
Temperature  
Mean Temperature 62 °F -  
Max Temperature 66 °F 68 °F 87 °F (2015)
Min Temperature 57 °F 65 °F 53 °F (1998)
Degree Days  
Heating Degree Days 4    
Growing Degree Days 12 (Base 50)    
Moisture  
Dew Point 55 °F    
Average Humidity 80    
Maximum Humidity 94    
Minimum Humidity 65    
Precipitation  
Precipitation 0.00 in - - ()
Sea Level Pressure  
Sea Level Pressure 30.00 in    
Wind  
Wind Speed 11 mph (NNW)    
Max Wind Speed 16 mph    
Max Gust Speed 24 mph    
Visibility 9 miles    
Events      
Averages and records for this station are not official NWS values.
T = Trace of Precipitation, MM = Missing Value Source: NWS Daily Summary

Daily Weather History Graph

Daily Weather History Graph

Search for Another Location

Airport or City:

Trip Planner

Search our weather history database for the weather conditions in past years. The results will help you decide how hot, cold, wet, or windy it might be!

Date:

Astronomy

Nov. 06, 2012 Rise Set
Actual Time 6:14 AM CST 5:07 PM CST
Civil Twilight 5:49 AM CST 5:32 PM CST
Nautical Twilight 5:21 AM CST 6:00 PM CST
Astronomical Twilight 4:53 AM CST 6:28 PM CST
Moon 11:40 PM CST (11/6) 12:10 PM CST (11/6)
Length of Visible Light 11h 42m
Length of Day
10h 52m
Waning Gibbous, 53% of the Moon is Illuminated
Nov 6
Waning Gibbous
Nov 6
Last Quarter
Nov 13
New
Nov 20
First Quarter
Nov 28
Full

Hourly Weather History & Observations

Time (CST) Temp. Dew Point Humidity Pressure Visibility Wind Dir Wind Speed Gust Speed Precip Events Conditions
12:51 AM 66.0 °F 63.0 °F 90% 29.93 in 10.0 mi WNW 8.1 mph - N/A   Partly Cloudy
1:51 AM 66.0 °F 63.0 °F 90% 29.93 in 9.0 mi NW 11.5 mph - N/A   Clear
2:40 AM 64.4 °F 62.6 °F 94% 29.94 in 8.0 mi NNW 13.8 mph - N/A   Mostly Cloudy
2:51 AM 64.0 °F 61.0 °F 90% 29.94 in 8.0 mi NNW 13.8 mph - N/A   Mostly Cloudy
3:19 AM 62.6 °F 60.8 °F 94% 29.95 in 7.0 mi NNW 13.8 mph 24.2 mph N/A   Mostly Cloudy
3:42 AM 62.6 °F 60.8 °F 94% 29.95 in 7.0 mi NNW 12.7 mph 21.9 mph N/A   Scattered Clouds
3:51 AM 62.1 °F 60.1 °F 93% 29.95 in 7.0 mi NNW 12.7 mph - N/A   Scattered Clouds
4:51 AM 62.1 °F 57.0 °F 84% 29.96 in 8.0 mi NNW 13.8 mph 20.7 mph N/A   Partly Cloudy
5:13 AM 60.8 °F 59.0 °F 94% 29.97 in 7.0 mi NNW 12.7 mph 21.9 mph N/A   Mostly Cloudy
5:37 AM 60.8 °F 57.2 °F 88% 29.97 in 8.0 mi NNW 15.0 mph - N/A   Scattered Clouds
5:51 AM 59.0 °F 55.9 °F 90% 29.98 in 8.0 mi NNW 15.0 mph 18.4 mph N/A   Partly Cloudy
6:22 AM 57.2 °F 55.4 °F 94% 29.99 in 8.0 mi NNW 10.4 mph - N/A   Mostly Cloudy
6:30 AM 57.2 °F 55.4 °F 94% 29.99 in 7.0 mi NNW 10.4 mph - N/A   Scattered Clouds
6:51 AM 57.9 °F 55.0 °F 90% 30.01 in 7.0 mi North 8.1 mph - N/A   Scattered Clouds
7:51 AM 60.1 °F 54.0 °F 80% 30.02 in 9.0 mi North 6.9 mph - N/A   Partly Cloudy
8:29 AM 60.8 °F 55.4 °F 82% 30.03 in 10.0 mi North 5.8 mph - N/A   Mostly Cloudy
8:51 AM 61.0 °F 55.0 °F 81% 30.04 in 10.0 mi North 8.1 mph - N/A   Mostly Cloudy
9:19 AM 62.6 °F 53.6 °F 72% 30.04 in 10.0 mi North 9.2 mph - N/A   Mostly Cloudy
9:51 AM 61.0 °F 54.0 °F 78% 30.05 in 9.0 mi North 6.9 mph - N/A   Overcast
10:51 AM 63.0 °F 54.0 °F 72% 30.04 in 10.0 mi North 6.9 mph - N/A   Mostly Cloudy
11:02 AM 62.6 °F 53.6 °F 72% 30.04 in 10.0 mi North 8.1 mph - N/A   Scattered Clouds
11:51 AM 63.0 °F 53.1 °F 70% 30.02 in 10.0 mi North 5.8 mph - N/A   Clear
12:51 PM 63.0 °F 54.0 °F 72% 30.00 in 10.0 mi NW 8.1 mph - N/A   Scattered Clouds
1:02 PM 62.6 °F 53.6 °F 72% 29.99 in 9.0 mi North 8.1 mph 16.1 mph N/A   Mostly Cloudy
1:33 PM 62.6 °F 53.6 °F 72% 29.99 in 10.0 mi NNW 11.5 mph - N/A   Scattered Clouds
1:51 PM 64.0 °F 54.0 °F 70% 29.99 in 9.0 mi NNW 12.7 mph 19.6 mph N/A   Mostly Cloudy
2:51 PM 62.1 °F 53.1 °F 72% 30.01 in 9.0 mi NW 16.1 mph 24.2 mph N/A   Overcast
3:02 PM 60.8 °F 53.6 °F 77% 30.01 in 8.0 mi NW 13.8 mph 23.0 mph N/A   Overcast
3:19 PM 60.8 °F 53.6 °F 77% 30.01 in 8.0 mi NW 12.7 mph 23.0 mph N/A   Overcast
3:51 PM 60.1 °F 52.0 °F 75% 30.01 in 9.0 mi NNW 13.8 mph 18.4 mph N/A   Overcast
4:51 PM 59.0 °F 52.0 °F 78% 30.01 in 8.0 mi NNW 12.7 mph - N/A   Mostly Cloudy
5:51 PM 59.0 °F 50.0 °F 72% 30.02 in 10.0 mi NNW 11.5 mph 19.6 mph N/A   Clear
6:51 PM 60.1 °F 50.0 °F 69% 30.04 in 10.0 mi NNW 9.2 mph - N/A   Overcast
7:51 PM 61.0 °F 51.1 °F 70% 30.06 in 10.0 mi North 8.1 mph 16.1 mph N/A   Overcast
8:51 PM 59.0 °F 48.0 °F 67% 30.07 in 10.0 mi NNW 11.5 mph 18.4 mph N/A   Partly Cloudy
9:51 PM 57.9 °F 46.0 °F 65% 30.07 in 10.0 mi NNW 11.5 mph - N/A   Clear
10:51 PM 57.9 °F 46.0 °F 65% 30.07 in 10.0 mi NNW 9.2 mph - N/A   Clear
11:51 PM 57.9 °F 46.9 °F 67% 30.06 in 10.0 mi NNW 10.4 mph - N/A   Clear